Theta_e
313 313 320 330 337 335 341 339 334 336 327 323 322 320 321 320 321 321 331 337 336 330 329 325 323 319 320 322 323 324 326 327 327 328 328 330 331 331 330 330 329 328 328 328 329 328 328 332 333
313 318 326 332 340 342 339 336 336 329 324 319 319 319 321 322 326 326 334 337 336 335 328 323 321 321 322 323 324 327 328 330 335 336 336 335 334 333 332 331 332 331 331 331 330 330 329 328 333
317 326 333 337 336 340 337 334 333 331 325 321 322 322 321 323 325 327 328 332 336 333 326 322 322 322 324 326 326 327 329 332 338 338 338 338 337 334 333 332 332 332 332 333 333 332 332 330 329
324 331 331 334 336 332 335 331 331 328 324 321 321 324 322 324 325 326 327 331 333 330 327 324 325 326 326 325 322 322 326 333 338 339 338 338 336 335 334 333 332 332 332 332 333 333 332 332 330
331 326 333 333 333 331 329 329 327 329 325 321 322 324 323 323 326 326 328 331 329 328 327 327 327 327 326 322 322 321 322 323 333 336 337 337 336 334 334 333 333 333 331 331 332 331 334 332 332
328 323 329 331 330 330 328 326 327 326 326 323 324 322 321 323 325 327 328 328 327 326 328 329 330 327 324 322 323 322 321 323 323 322 323 326 331 333 332 333 332 331 331 331 331 332 333 333 331
328 328 331 330 333 330 329 326 327 325 326 321 321 322 322 322 325 326 327 327 327 328 328 331 329 325 322 322 322 321 322 323 325 324 324 324 324 327 329 330 329 330 331 331 331 331 331 332 331
326 326 331 329 331 330 327 324 323 325 326 322 324 325 323 321 324 324 327 328 327 328 330 329 324 324 322 323 322 324 325 325 325 325 325 325 325 326 328 329 329 329 328 328 329 330 331 330 331
324 329 331 330 330 329 326 327 326 323 324 324 322 323 323 324 323 322 325 327 328 330 329 324 324 323 325 323 326 327 328 328 325 326 328 326 326 326 325 323 324 327 328 329 329 329 330 329 330
328 329 331 329 328 328 326 325 324 323 323 323 324 324 323 323 321 319 320 320 323 324 324 324 325 325 325 325 325 326 328 330 331 330 328 327 327 326 324 323 323 327 327 327 329 329 330 330 330
326 330 328 329 328 327 326 327 327 324 322 322 322 323 321 320 320 320 320 320 320 321 321 323 324 324 324 326 326 328 327 327 327 327 330 327 326 325 324 324 323 324 325 324 324 327 327 330 330
329 328 329 329 329 329 328 326 327 327 326 326 321 323 321 320 320 319 319 320 320 320 321 323 324 324 327 326 327 327 326 326 326 327 327 327 326 326 325 325 323 324 323 323 323 324 325 328 329
329 328 327 328 328 328 328 327 327 327 326 323 321 323 322 321 320 320 320 320 320 320 323 324 325 327 326 327 327 327 327 327 327 327 327 327 326 326 326 326 325 324 324 323 323 324 324 327 328
322 324 325 327 327 328 328 328 326 326 325 322 320 323 322 321 320 319 318 319 320 321 323 326 327 327 327 327 327 328 328 328 328 328 328 327 327 326 326 327 326 324 324 324 323 323 324 326 327
315 317 318 319 322 324 326 324 325 325 323 321 319 321 322 321 321 319 319 319 320 323 325 327 327 327 328 327 328 328 328 329 329 329 329 329 328 327 327 327 326 324 324 325 323 323 324 325 326
317 317 319 319 321 321 322 324 324 324 322 322 320 320 320 320 320 320 319 320 322 324 327 327 326 327 328 328 329 329 330 330 329 329 328 328 329 328 327 326 325 325 325 325 325 323 324 325 326
315 317 316 317 319 320 322 324 323 323 322 322 321 319 320 319 318 318 320 321 322 325 326 326 327 327 328 329 329 330 329 330 330 328 327 328 328 328 326 326 326 326 325 325 324 323 324 325 326
316 317 318 318 320 319 321 322 323 322 322 322 322 321 321 319 317 318 321 321 322 326 326 326 326 327 328 329 330 329 329 330 330 328 327 328 328 327 326 325 324 326 325 323 323 323 325 325 325
316 319 320 320 321 322 322 322 322 323 322 322 320 319 319 320 320 321 320 321 325 325 326 326 327 328 329 331 330 331 330 330 330 329 328 328 328 327 327 325 326 326 325 322 323 324 326 326 326
319 319 320 321 321 321 321 321 322 322 322 323 324 321 320 323 324 322 320 322 323 325 325 327 328 329 332 330 329 330 329 330 329 329 328 326 327 328 325 326 327 326 325 323 324 325 326 326 326
322 320 319 320 321 321 320 322 321 323 324 324 323 322 322 322 324 322 321 320 323 324 325 328 328 330 332 330 330 329 328 328 328 328 328 327 326 326 328 328 327 326 324 323 323 324 325 326 327
317 317 318 319 321 323 321 325 323 323 323 323 323 320 319 322 324 323 321 319 322 324 326 327 329 332 332 330 330 329 328 327 328 328 327 327 328 328 327 327 326 325 324 323 323 324 325 325 327
317 318 319 319 321 322 324 324 322 322 324 322 321 319 322 321 324 323 321 320 322 324 326 329 330 332 332 331 330 329 329 328 327 327 328 328 327 328 328 328 327 326 325 323 324 325 324 326 327
317 317 319 319 320 324 323 323 323 323 323 323 323 321 322 322 323 321 321 322 323 324 328 329 330 332 331 329 329 327 326 327 327 328 328 328 329 328 327 328 328 327 326 323 324 326 324 326 326
314 312 316 321 323 326 322 323 325 323 322 322 322 323 323 323 324 323 322 321 320 325 329 329 330 330 330 329 328 326 327 326 328 329 329 329 328 329 329 328 328 326 326 323 324 325 325 326 326
313 314 320 324 326 325 323 326 325 322 322 322 322 323 323 324 324 323 322 322 321 327 328 329 329 329 329 329 328 326 326 326 327 327 329 329 330 329 329 329 328 325 326 325 324 325 326 326 327
313 317 317 320 323 323 323 323 323 324 326 325 326 325 324 324 324 324 322 321 322 325 328 329 328 328 329 329 329 327 327 326 325 327 328 329 329 329 329 329 328 326 327 327 327 327 326 327 327
312 313 317 315 323 327 325 326 326 324 327 327 327 325 324 323 323 323 323 320 322 325 327 328 328 327 329 329 329 329 329 330 328 327 328 328 329 329 329 329 329 328 327 327 327 327 327 327 327
313 314 313 314 317 323 324 324 322 323 326 327 325 324 324 323 324 324 323 320 322 324 326 327 328 327 328 328 329 329 329 329 327 327 328 328 329 329 329 329 329 329 328 327 327 328 328 327 328
315 314 313 317 319 318 321 323 321 321 324 326 325 324 323 322 323 323 322 318 320 323 324 325 328 327 328 328 328 329 330 328 327 326 329 328 329 329 328 328 328 329 328 328 328 328 328 328 327
Wind_Speed
6 7 4 1 3 3 4 6 3 8 2 3 2 4 5 2 4 4 4 23 19 32 30 31 27 24 21 18 16 15 16 15 15 14 14 13 13 12 10 10 8 8 7 7 7 7 7 7 7
9 7 2 2 3 1 5 4 4 8 4 4 4 3 3 1 2 3 12 22 22 29 32 31 27 23 20 17 16 15 15 15 15 16 16 14 15 14 12 13 12 10 9 9 8 8 9 9 9
9 4 2 2 2 4 4 4 5 11 4 5 2 3 2 3 2 14 7 25 27 30 30 30 28 24 21 18 16 15 15 15 16 16 18 16 17 15 15 15 15 14 13 12 12 11 11 11 11
5 3 3 2 8 6 4 9 13 6 7 2 7 3 3 8 5 18 17 27 29 30 31 30 27 24 21 19 15 13 14 15 16 18 18 16 16 16 18 18 17 17 16 16 16 15 14 13 13
2 2 1 3 6 5 6 8 7 5 3 2 4 5 4 5 7 17 29 30 30 29 30 28 26 23 21 18 15 12 11 11 16 17 16 16 16 17 17 18 18 18 19 19 18 18 17 15 15
3 3 1 4 5 4 7 9 2 5 4 3 0 7 5 6 13 24 29 30 28 27 27 27 26 23 20 16 14 11 11 13 13 12 12 14 16 17 18 18 18 20 20 20 20 20 20 18 18
5 3 4 4 9 7 6 3 4 6 3 6 5 8 4 3 20 30 29 27 27 25 26 26 25 22 18 15 12 11 13 13 13 13 12 11 12 14 15 18 19 20 21 21 21 21 20 18 19
4 4 3 5 4 10 6 3 2 4 8 2 2 4 6 7 26 26 28 27 26 27 28 28 24 21 18 14 11 12 13 15 15 13 12 11 11 11 13 15 17 19 20 22 22 22 22 21 20
4 2 5 6 5 9 3 3 5 4 4 3 8 6 6 21 27 25 25 25 26 28 29 27 24 21 17 13 11 13 14 16 16 15 13 13 13 13 13 13 13 13 14 18 20 22 24 23 20
5 5 9 10 6 7 10 3 8 5 9 4 5 3 5 31 28 21 19 21 28 27 27 26 24 22 18 13 9 11 13 15 15 16 15 15 15 14 12 13 13 14 15 16 15 18 20 20 21
6 11 22 9 10 5 9 20 10 9 10 10 8 6 7 8 18 19 22 28 34 32 27 27 24 23 17 10 9 12 12 11 13 15 16 15 13 13 13 13 13 14 15 17 17 15 15 19 21
5 12 18 18 18 6 12 10 16 19 21 20 13 10 10 14 16 16 21 30 28 29 28 28 27 21 15 10 9 9 6 7 9 11 14 16 16 15 15 15 13 14 13 15 13 15 13 17 20
7 13 15 15 15 16 18 15 19 21 21 14 7 11 16 16 17 26 29 30 29 29 32 31 25 19 13 11 8 8 6 8 8 11 15 16 16 16 15 17 15 15 15 15 15 14 13 17 19
6 8 13 11 16 19 19 19 10 16 13 10 9 15 16 16 20 17 19 26 28 32 35 30 24 17 14 11 8 6 8 9 11 11 12 14 16 16 17 18 17 16 16 14 15 15 14 16 20
7 15 15 10 15 12 18 18 22 18 12 11 11 13 15 18 17 20 31 32 36 35 33 28 22 18 15 9 5 5 5 8 9 11 12 15 15 16 16 16 17 16 15 14 14 14 14 15 18
5 4 7 9 17 15 8 20 19 16 10 16 10 10 11 16 18 29 24 26 29 34 32 25 20 17 12 6 4 4 6 6 6 9 11 12 13 13 12 14 17 13 13 14 15 15 13 15 17
3 14 17 20 13 6 6 18 12 8 7 13 11 12 14 19 14 15 25 28 34 34 30 23 19 14 9 4 4 6 6 5 7 8 10 9 12 14 14 16 16 13 12 13 15 14 12 15 16
13 8 7 16 3 9 15 16 17 14 12 13 13 14 12 12 18 16 27 30 34 32 28 22 16 12 7 3 3 3 4 5 7 8 8 9 11 11 12 14 15 13 9 10 14 13 12 13 15
10 6 10 17 2 8 7 11 11 14 8 11 11 10 11 7 3 15 25 34 35 31 26 21 17 12 6 3 1 2 4 6 8 8 8 10 9 9 11 11 11 12 11 13 15 14 13 13 14
10 11 16 19 6 6 8 14 14 13 10 10 12 9 6 3 6 9 19 27 33 31 24 18 14 11 7 2 1 3 6 5 7 8 7 9 6 7 9 9 9 12 13 15 17 16 10 6 15
18 18 17 20 3 7 7 13 13 17 5 8 10 9 6 11 11 13 15 21 30 28 23 19 15 10 6 2 1 3 4 4 5 5 8 3 0 5 5 5 7 12 15 18 19 15 12 8 12
19 14 17 18 4 8 4 5 5 9 12 7 9 9 9 6 8 12 13 14 25 25 21 17 14 11 7 3 1 4 4 3 4 6 6 4 3 5 5 4 7 11 14 17 18 16 14 15 15
17 12 9 13 8 5 8 3 7 4 8 10 9 9 4 8 11 13 15 19 25 24 22 19 14 10 8 3 2 5 3 2 2 2 4 3 3 6 6 5 8 10 13 15 18 17 15 17 20
8 2 2 11 3 10 18 7 5 7 9 7 5 3 7 8 11 9 13 21 22 22 21 18 14 11 6 4 3 4 3 1 2 5 5 5 3 5 6 7 8 9 13 16 18 16 15 15 18
13 6 4 3 5 6 8 5 14 7 9 9 9 7 9 12 14 15 15 9 20 23 23 18 14 11 7 4 3 4 3 1 4 5 6 4 1 3 3 8 9 11 12 15 16 15 14 14 17
14 14 6 5 3 5 7 7 7 10 9 9 4 7 9 10 9 15 14 12 18 25 24 20 15 11 9 5 4 4 1 2 4 6 3 3 2 2 3 8 9 11 11 15 15 16 15 14 15
16 15 13 2 3 2 5 6 8 1 3 3 8 10 9 11 13 14 10 15 20 26 25 22 16 12 11 6 5 3 1 2 4 6 4 4 4 3 2 8 11 12 12 14 15 15 15 14 14
9 10 7 5 6 5 4 3 6 5 7 5 7 9 8 7 9 10 10 13 22 28 26 22 18 15 13 8 5 2 1 2 3 4 5 5 4 5 4 6 12 13 14 16 17 15 13 14 12
8 11 5 7 5 5 1 6 7 9 9 12 10 10 11 12 12 12 11 16 25 27 25 22 19 16 14 10 7 2 2 3 3 3 5 6 6 5 5 6 9 13 16 17 17 16 16 15 14
19 17 9 11 9 5 3 7 5 11 14 14 14 10 8 9 11 12 11 15 19 25 23 21 22 19 16 11 9 4 4 5 5 4 4 5 7 6 7 8 9 13 15 16 16 16 17 16 15
Wind_Direction
157 141 135 88 53 63 263 257 276 309 260 232 146 154 199 104 160 217 165 169 190 188 185 190 190 195 197 199 203 208 210 216 219 221 221 217 222 227 233 243 242 243 247 249 249 257 259 263 259
146 138 105 78 109 126 261 258 262 241 224 97 50 36 11 157 146 140 139 179 188 184 185 190 192 197 198 202 207 214 218 221 222 225 227 225 228 225 233 244 251 254 253 252 250 250 253 249 257
148 117 86 106 164 201 225 249 258 289 291 171 82 53 227 225 195 171 191 181 180 183 186 191 193 198 198 203 209 218 225 227 225 230 232 232 236 228 236 240 244 250 253 252 248 249 248 248 244
141 41 38 114 241 265 237 278 283 281 307 230 145 165 272 215 185 186 172 173 177 183 190 194 196 196 197 203 212 223 228 234 230 232 236 237 240 233 239 240 244 246 248 252 255 253 248 245 245
123 57 111 237 245 250 251 257 276 264 226 174 166 203 240 286 178 178 169 173 178 187 195 196 197 197 200 206 214 213 220 239 237 236 236 241 242 243 243 247 245 246 250 251 250 252 245 239 238
59 99 45 253 229 232 282 265 252 276 281 156 171 146 224 273 183 170 171 180 187 191 195 196 197 199 202 209 212 214 222 230 234 235 237 244 249 250 248 249 250 252 252 254 250 250 244 240 235
128 107 221 243 279 296 241 300 270 302 238 241 150 153 242 241 178 173 182 187 191 196 193 195 198 198 203 209 214 226 235 235 233 231 231 240 249 252 253 254 255 255 256 254 252 248 250 247 237
135 122 260 240 237 277 219 285 282 285 284 69 71 201 247 206 171 175 185 190 194 198 195 194 197 195 200 206 220 239 249 244 238 235 239 245 247 247 249 253 255 255 257 257 257 255 251 247 242
134 109 254 239 196 251 170 350 301 285 247 237 202 174 254 174 169 167 172 180 189 194 194 194 195 196 195 198 225 246 247 243 239 238 240 243 247 251 251 258 259 252 252 255 253 251 249 243 240
159 155 237 219 194 253 296 184 291 303 300 283 284 218 179 162 166 165 171 186 197 198 198 199 194 191 187 205 236 239 235 235 233 239 241 242 250 264 265 264 253 250 254 257 265 256 249 238 228
190 211 231 264 244 221 286 294 297 273 279 247 232 214 161 161 178 183 188 196 201 202 200 198 193 188 191 202 214 215 226 243 248 246 240 244 255 262 252 259 254 251 255 258 259 260 258 237 225
224 233 241 250 259 271 263 292 289 288 276 280 238 186 168 181 187 193 200 207 205 198 191 185 184 187 191 194 197 213 231 242 246 242 236 244 253 255 252 260 268 263 262 263 257 253 253 231 223
191 245 248 269 284 276 278 267 267 280 279 271 248 162 187 194 199 204 204 209 211 197 186 181 184 188 192 191 195 218 246 258 260 251 253 256 251 255 259 261 267 272 260 262 253 245 240 225 218
246 254 268 257 261 273 275 273 278 272 278 269 191 194 197 200 205 203 202 206 204 191 182 180 182 187 191 197 214 236 254 265 261 265 274 260 257 259 261 262 257 266 261 261 251 238 235 223 215
261 284 280 259 266 259 266 272 265 272 272 267 222 214 206 212 210 215 205 200 194 184 179 178 180 185 192 206 215 255 268 279 273 280 276 267 263 262 270 253 245 258 259 254 240 234 229 223 212
336 292 271 270 253 255 210 271 274 278 261 266 239 229 216 225 215 223 206 195 181 180 175 174 182 180 182 190 254 274 277 286 293 293 284 273 266 263 248 244 245 258 259 248 237 227 217 212 210
255 260 264 278 251 260 201 274 276 266 258 262 257 221 217 231 224 210 200 192 182 177 169 168 171 168 168 196 256 288 275 282 287 294 293 285 273 258 246 244 251 255 257 244 222 207 208 207 214
218 230 259 255 140 226 252 261 272 272 245 253 263 254 220 217 229 186 183 181 176 170 168 166 165 156 162 198 264 296 307 280 287 295 304 302 276 261 244 244 248 249 242 212 193 191 197 210 207
236 222 246 260 193 233 245 263 272 278 296 267 260 244 243 239 195 164 160 167 165 167 165 166 159 152 162 190 252 320 328 304 286 285 302 310 289 248 241 240 247 229 216 192 184 181 189 187 190
241 247 253 283 272 245 271 269 276 278 265 239 261 261 249 199 146 143 147 153 160 164 164 163 155 154 162 148 26 325 322 310 297 281 307 314 316 222 209 236 241 210 196 187 183 185 174 163 173
222 230 246 250 333 265 284 283 284 283 250 260 246 234 225 204 165 156 153 154 160 161 163 159 156 165 167 152 50 348 352 314 304 281 323 336 73 179 200 240 208 197 195 192 192 189 186 151 172
224 215 242 259 276 264 129 284 295 285 303 287 258 238 241 172 146 149 149 155 158 162 161 157 160 170 173 186 305 351 341 313 301 309 323 344 205 208 218 233 194 190 193 195 196 189 196 194 173
230 224 226 247 234 258 248 270 264 233 284 281 265 247 216 155 146 153 154 157 161 161 160 159 165 171 184 195 319 345 343 312 321 342 343 342 242 227 217 228 199 198 198 194 192 191 192 194 180
206 248 261 252 239 254 263 187 226 235 224 258 246 223 143 128 125 126 141 155 157 159 161 163 167 173 182 182 24 28 79 99 7 344 346 337 284 232 231 206 200 201 197 191 190 189 193 188 190
202 130 254 275 219 229 237 189 245 247 233 224 260 180 153 147 145 151 159 152 153 161 166 169 171 173 167 158 54 88 102 36 355 357 359 352 248 182 193 180 180 185 187 183 186 189 192 191 194
212 182 172 200 209 193 183 230 247 214 231 230 212 149 144 147 159 159 160 155 161 167 171 175 176 171 176 160 106 111 89 18 19 1 17 35 59 80 153 162 167 172 175 176 182 182 188 197 196
201 206 181 30 291 132 220 280 323 32 261 160 144 144 166 164 159 156 156 158 165 172 178 181 177 180 183 164 136 140 85 43 23 30 57 81 54 46 109 170 168 169 170 171 173 173 182 190 193
173 161 174 200 204 219 267 219 220 212 223 165 155 175 166 141 148 151 163 161 173 179 182 185 180 186 182 170 149 138 125 44 22 57 78 76 69 76 108 136 169 175 173 166 165 171 176 180 178
175 179 177 156 199 174 207 254 209 206 185 187 197 190 158 172 163 163 168 170 179 183 184 186 184 184 184 178 173 161 114 55 62 78 105 82 78 96 107 135 158 165 166 168 165 167 171 176 176
204 198 188 194 194 240 164 260 238 198 195 185 191 174 170 173 160 166 166 161 171 182 184 185 185 186 187 181 179 168 120 110 86 87 119 87 74 96 117 145 148 155 157 162 166 164 168 166 166